Time,TemperatureF,DewpointF,PressureIn,WindDirection,WindDirectionDegrees,WindSpeedMPH,WindSpeedGustMPH,Humidity,HourlyPrecipIn,Conditions,Clouds,dailyrainin,SoftwareType,DateUTC
2013-03-07 00:02:00,39.0,-99.9,30.24,NNW,333,2.0,9.0,-999,-99.99,,,-99.99,,2013-03-07 06:02:00,
2013-03-07 00:11:00,39.0,-99.9,30.24,NNW,333,2.0,9.0,-999,-99.99,,,-99.99,,2013-03-07 06:11:00,
2013-03-07 00:22:00,39.0,-99.9,30.24,NNW,337,2.0,6.0,-999,-99.99,,,-99.99,,2013-03-07 06:22:00,
2013-03-07 00:32:00,39.0,-99.9,30.24,NNW,329,3.0,7.0,-999,-99.99,,,-99.99,,2013-03-07 06:32:00,
2013-03-07 00:42:00,38.0,-99.9,30.24,NNE,22,0.0,6.0,-999,-99.99,,,-99.99,,2013-03-07 06:42:00,
2013-03-07 00:52:00,38.0,-99.9,30.24,NNE,22,0.0,6.0,-999,-99.99,,,-99.99,,2013-03-07 06:52:00,
2013-03-07 01:02:00,38.0,-99.9,30.24,NW,322,6.0,7.0,-999,-99.99,,,-99.99,,2013-03-07 07:02:00,
2013-03-07 01:11:00,38.0,-99.9,30.24,NW,322,6.0,7.0,-999,-99.99,,,-99.99,,2013-03-07 07:11:00,
2013-03-07 01:22:00,38.0,-99.9,30.24,North,5,2.0,8.0,-999,-99.99,,,-99.99,,2013-03-07 07:22:00,
2013-03-07 01:32:00,39.0,-99.9,30.24,NE,42,2.0,9.0,-999,-99.99,,,-99.99,,2013-03-07 07:32:00,
2013-03-07 01:43:00,39.0,-99.9,30.24,NE,42,2.0,9.0,-999,-99.99,,,-99.99,,2013-03-07 07:43:00,
2013-03-07 01:53:00,39.0,-99.9,30.24,NNW,327,3.0,7.0,-999,-99.99,,,-99.99,,2013-03-07 07:53:00,
2013-03-07 02:03:00,38.0,-99.9,30.24,North,7,1.0,9.0,-999,-99.99,,,-99.99,,2013-03-07 08:03:00,
2013-03-07 02:12:00,38.0,-99.9,30.24,North,7,1.0,9.0,-999,-99.99,,,-99.99,,2013-03-07 08:12:00,
2013-03-07 02:23:00,38.0,-99.9,30.24,North,350,5.0,10.0,-999,-99.99,,,-99.99,,2013-03-07 08:23:00,
2013-03-07 02:34:00,37.0,-99.9,30.24,North,358,2.0,8.0,-999,-99.99,,,-99.99,,2013-03-07 08:34:00,
2013-03-07 02:45:00,37.0,-99.9,30.24,North,358,2.0,8.0,-999,-99.99,,,-99.99,,2013-03-07 08:45:00,
2013-03-07 02:55:00,37.0,-99.9,30.23,NNW,347,1.0,9.0,-999,-99.99,,,-99.99,,2013-03-07 08:55:00,
2013-03-07 03:03:00,37.0,-99.9,30.24,NNE,26,3.0,8.0,-999,-99.99,,,-99.99,,2013-03-07 09:03:00,
2013-03-07 03:14:00,37.0,-99.9,30.24,NNE,26,3.0,8.0,-999,-99.99,,,-99.99,,2013-03-07 09:14:00,
2013-03-07 03:24:00,37.0,-99.9,30.23,ENE,75,1.0,7.0,-999,-99.99,,,-99.99,,2013-03-07 09:24:00,
2013-03-07 03:33:00,37.0,-99.9,30.23,NNE,15,5.0,6.0,-999,-99.99,,,-99.99,,2013-03-07 09:33:00,
2013-03-07 03:43:00,37.0,-99.9,30.23,NNE,15,5.0,6.0,-999,-99.99,,,-99.99,,2013-03-07 09:43:00,
2013-03-07 03:54:00,37.0,-99.9,30.23,North,0,1.0,14.0,-999,-99.99,,,-99.99,,2013-03-07 09:54:00,
2013-03-07 04:04:00,37.0,-99.9,30.23,NNW,338,7.0,9.0,-999,-99.99,,,-99.99,,2013-03-07 10:04:00,
2013-03-07 04:14:00,37.0,-99.9,30.23,NNW,338,7.0,9.0,-999,-99.99,,,-99.99,,2013-03-07 10:14:00,
2013-03-07 04:24:00,36.0,-99.9,30.24,NNW,334,4.0,10.0,-999,-99.99,,,-99.99,,2013-03-07 10:24:00,
2013-03-07 04:33:00,36.0,-99.9,30.24,NW,323,3.0,7.0,-999,-99.99,,,-99.99,,2013-03-07 10:33:00,
2013-03-07 04:43:00,36.0,-99.9,30.24,NW,323,3.0,7.0,-999,-99.99,,,-99.99,,2013-03-07 10:43:00,
2013-03-07 04:54:00,36.0,-99.9,30.24,ENE,61,1.0,10.0,-999,-99.99,,,-99.99,,2013-03-07 10:54:00,
2013-03-07 05:04:00,35.0,-99.9,30.24,NNW,343,5.0,8.0,-999,-99.99,,,-99.99,,2013-03-07 11:04:00,
2013-03-07 05:12:00,35.0,-99.9,30.24,NNW,343,5.0,8.0,-999,-99.99,,,-99.99,,2013-03-07 11:12:00,
2013-03-07 05:23:00,36.0,-99.9,30.25,NNE,21,3.0,6.0,-999,-99.99,,,-99.99,,2013-03-07 11:23:00,
2013-03-07 05:34:00,36.0,-99.9,30.24,ENE,60,2.0,9.0,-999,-99.99,,,-99.99,,2013-03-07 11:34:00,
2013-03-07 05:44:00,36.0,-99.9,30.24,ENE,60,2.0,9.0,-999,-99.99,,,-99.99,,2013-03-07 11:44:00,
2013-03-07 05:55:00,36.0,-99.9,30.24,NNE,21,8.0,9.0,-999,-99.99,,,-99.99,,2013-03-07 11:55:00,
2013-03-07 06:04:00,36.0,-99.9,30.25,NE,35,8.0,11.0,-999,-99.99,,,-99.99,,2013-03-07 12:04:00,
2013-03-07 06:13:00,36.0,-99.9,30.25,NE,35,8.0,11.0,-999,-99.99,,,-99.99,,2013-03-07 12:13:00,
2013-03-07 06:23:00,36.0,-99.9,30.26,NNE,32,9.0,10.0,-999,-99.99,,,-99.99,,2013-03-07 12:23:00,
2013-03-07 06:34:00,36.0,-99.9,30.26,ENE,64,2.0,13.0,-999,-99.99,,,-99.99,,2013-03-07 12:34:00,
2013-03-07 06:43:00,36.0,-99.9,30.26,ENE,64,2.0,13.0,-999,-99.99,,,-99.99,,2013-03-07 12:43:00,
2013-03-07 06:53:00,36.0,-99.9,30.27,NNE,15,2.0,10.0,-999,-99.99,,,-99.99,,2013-03-07 12:53:00,
2013-03-07 07:03:00,37.0,-99.9,30.27,North,9,6.0,10.0,-999,-99.99,,,-99.99,,2013-03-07 13:03:00,
2013-03-07 07:13:00,37.0,-99.9,30.27,North,9,6.0,10.0,-999,-99.99,,,-99.99,,2013-03-07 13:13:00,
2013-03-07 07:23:00,36.0,-99.9,30.27,NNE,29,3.0,9.0,-999,-99.99,,,-99.99,,2013-03-07 13:23:00,
2013-03-07 07:33:00,37.0,-99.9,30.29,NNW,338,1.0,8.0,-999,-99.99,,,-99.99,,2013-03-07 13:33:00,
2013-03-07 07:42:00,37.0,-99.9,30.29,NNW,338,1.0,8.0,-999,-99.99,,,-99.99,,2013-03-07 13:42:00,
2013-03-07 07:53:00,38.0,-99.9,30.29,NNE,29,2.0,9.0,-999,-99.99,,,-99.99,,2013-03-07 13:53:00,
2013-03-07 08:02:00,40.0,-99.9,30.30,NNW,348,7.0,10.0,-999,-99.99,,,-99.99,,2013-03-07 14:02:00,
2013-03-07 08:12:00,40.0,-99.9,30.30,NNW,348,7.0,10.0,-999,-99.99,,,-99.99,,2013-03-07 14:12:00,
2013-03-07 08:23:00,38.0,-99.9,30.32,NE,36,4.0,7.0,-999,-99.99,,,-99.99,,2013-03-07 14:23:00,
2013-03-07 08:34:00,39.0,-99.9,30.32,NE,40,5.0,9.0,-999,-99.99,,,-99.99,,2013-03-07 14:34:00,
2013-03-07 08:43:00,39.0,-99.9,30.32,NE,40,5.0,9.0,-999,-99.99,,,-99.99,,2013-03-07 14:43:00,
2013-03-07 08:54:00,41.0,-99.9,30.32,NE,39,3.0,10.0,-999,-99.99,,,-99.99,,2013-03-07 14:54:00,
2013-03-07 09:03:00,42.0,-99.9,30.33,NNE,30,5.0,11.0,-999,-99.99,,,-99.99,,2013-03-07 15:03:00,
2013-03-07 09:13:00,42.0,-99.9,30.33,NNE,30,5.0,11.0,-999,-99.99,,,-99.99,,2013-03-07 15:13:00,
2013-03-07 09:23:00,43.0,-99.9,30.33,North,9,1.0,9.0,-999,-99.99,,,-99.99,,2013-03-07 15:23:00,
2013-03-07 09:33:00,43.0,-99.9,30.32,NNE,12,0.0,9.0,-999,-99.99,,,-99.99,,2013-03-07 15:33:00,
2013-03-07 09:43:00,43.0,-99.9,30.32,NNE,12,0.0,9.0,-999,-99.99,,,-99.99,,2013-03-07 15:43:00,
2013-03-07 09:53:00,43.0,-99.9,30.31,NNW,330,2.0,11.0,-999,-99.99,,,-99.99,,2013-03-07 15:53:00,
2013-03-07 10:03:00,45.0,-99.9,30.32,NNW,341,2.0,10.0,-999,-99.99,,,-99.99,,2013-03-07 16:03:00,
2013-03-07 10:13:00,45.0,-99.9,30.32,NNW,341,2.0,10.0,-999,-99.99,,,-99.99,,2013-03-07 16:13:00,
2013-03-07 10:24:00,46.0,-99.9,30.31,North,0,4.0,7.0,-999,-99.99,,,-99.99,,2013-03-07 16:24:00,
2013-03-07 10:33:00,47.0,-99.9,30.31,North,2,8.0,8.0,-999,-99.99,,,-99.99,,2013-03-07 16:33:00,
2013-03-07 10:43:00,47.0,-99.9,30.31,North,2,8.0,8.0,-999,-99.99,,,-99.99,,2013-03-07 16:43:00,
2013-03-07 10:53:00,48.0,-99.9,30.31,North,1,6.0,9.0,-999,-99.99,,,-99.99,,2013-03-07 16:53:00,
2013-03-07 11:03:00,49.0,-99.9,30.30,NNE,33,4.0,9.0,-999,-99.99,,,-99.99,,2013-03-07 17:03:00,
2013-03-07 11:12:00,49.0,-99.9,30.30,NNE,33,4.0,9.0,-999,-99.99,,,-99.99,,2013-03-07 17:12:00,
2013-03-07 11:23:00,50.0,-99.9,30.31,ENE,66,1.0,9.0,-999,-99.99,,,-99.99,,2013-03-07 17:23:00,
2013-03-07 11:34:00,51.0,-99.9,30.30,NNE,28,0.0,7.0,-999,-99.99,,,-99.99,,2013-03-07 17:34:00,
2013-03-07 11:44:00,51.0,-99.9,30.30,NNE,28,0.0,7.0,-999,-99.99,,,-99.99,,2013-03-07 17:44:00,
2013-03-07 11:55:00,51.0,-99.9,30.29,NNE,19,0.0,7.0,-999,-99.99,,,-99.99,,2013-03-07 17:55:00,
2013-03-07 12:04:00,53.0,-99.9,30.29,NE,46,0.0,4.0,-999,-99.99,,,-99.99,,2013-03-07 18:04:00,
2013-03-07 12:13:00,53.0,-99.9,30.29,NE,46,0.0,4.0,-999,-99.99,,,-99.99,,2013-03-07 18:13:00,
2013-03-07 12:22:00,54.0,-99.9,30.28,NE,53,2.0,8.0,-999,-99.99,,,-99.99,,2013-03-07 18:22:00,
2013-03-07 12:33:00,55.0,-99.9,30.27,North,352,5.0,8.0,-999,-99.99,,,-99.99,,2013-03-07 18:33:00,
2013-03-07 12:43:00,55.0,-99.9,30.27,North,352,5.0,8.0,-999,-99.99,,,-99.99,,2013-03-07 18:43:00,
2013-03-07 12:53:00,56.0,-99.9,30.26,ENE,70,2.0,7.0,-999,-99.99,,,-99.99,,2013-03-07 18:53:00,
2013-03-07 13:03:00,56.0,-99.9,30.24,North,358,3.0,9.0,-999,-99.99,,,-99.99,,2013-03-07 19:03:00,
2013-03-07 13:24:00,58.0,-99.9,30.24,NNE,16,2.0,6.0,-999,-99.99,,,-99.99,,2013-03-07 19:24:00,
2013-03-07 13:35:00,58.0,-99.9,30.23,ENE,74,1.0,8.0,-999,-99.99,,,-99.99,,2013-03-07 19:35:00,
2013-03-07 13:44:00,58.0,-99.9,30.23,ENE,74,1.0,8.0,-999,-99.99,,,-99.99,,2013-03-07 19:44:00,
2013-03-07 13:53:00,59.0,-99.9,30.23,NNW,330,4.0,4.0,-999,-99.99,,,-99.99,,2013-03-07 19:53:00,
2013-03-07 14:02:00,59.0,-99.9,30.22,NW,307,5.0,8.0,-999,-99.99,,,-99.99,,2013-03-07 20:02:00,
2013-03-07 14:14:00,59.0,-99.9,30.22,NW,307,5.0,8.0,-999,-99.99,,,-99.99,,2013-03-07 20:14:00,
2013-03-07 14:23:00,60.0,-99.9,30.21,NNW,337,3.0,10.0,-999,-99.99,,,-99.99,,2013-03-07 20:23:00,
2013-03-07 14:34:00,61.0,-99.9,30.21,North,11,2.0,8.0,-999,-99.99,,,-99.99,,2013-03-07 20:34:00,
2013-03-07 14:43:00,61.0,-99.9,30.21,North,11,2.0,8.0,-999,-99.99,,,-99.99,,2013-03-07 20:43:00,
2013-03-07 14:54:00,60.0,-99.9,30.21,NNW,337,4.0,6.0,-999,-99.99,,,-99.99,,2013-03-07 20:54:00,
2013-03-07 15:03:00,62.0,-99.9,30.20,NNE,30,5.0,9.0,-999,-99.99,,,-99.99,,2013-03-07 21:03:00,
2013-03-07 15:13:00,62.0,-99.9,30.20,NNE,30,5.0,9.0,-999,-99.99,,,-99.99,,2013-03-07 21:13:00,
2013-03-07 15:23:00,62.0,-99.9,30.21,NNE,14,6.0,6.0,-999,-99.99,,,-99.99,,2013-03-07 21:23:00,
2013-03-07 15:33:00,62.0,-99.9,30.21,North,9,1.0,9.0,-999,-99.99,,,-99.99,,2013-03-07 21:33:00,
2013-03-07 15:43:00,62.0,-99.9,30.21,North,9,1.0,9.0,-999,-99.99,,,-99.99,,2013-03-07 21:43:00,
2013-03-07 15:53:00,61.0,-99.9,30.20,SW,234,3.0,6.0,-999,-99.99,,,-99.99,,2013-03-07 21:53:00,
2013-03-07 16:02:00,59.0,-99.9,30.20,SSW,209,2.0,8.0,-999,-99.99,,,-99.99,,2013-03-07 22:02:00,
2013-03-07 16:12:00,59.0,-99.9,30.20,SSW,209,2.0,8.0,-999,-99.99,,,-99.99,,2013-03-07 22:12:00,
2013-03-07 16:23:00,59.0,-99.9,30.20,South,178,1.0,5.0,-999,-99.99,,,-99.99,,2013-03-07 22:23:00,
2013-03-07 16:33:00,58.0,-99.9,30.19,WSW,239,3.0,7.0,-999,-99.99,,,-99.99,,2013-03-07 22:33:00,
2013-03-07 16:44:00,58.0,-99.9,30.19,WSW,239,3.0,7.0,-999,-99.99,,,-99.99,,2013-03-07 22:44:00,
2013-03-07 16:55:00,58.0,-99.9,30.20,SSW,201,2.0,7.0,-999,-99.99,,,-99.99,,2013-03-07 22:55:00,
2013-03-07 17:03:00,57.0,-99.9,30.20,SSW,212,0.0,6.0,-999,-99.99,,,-99.99,,2013-03-07 23:03:00,
2013-03-07 17:13:00,57.0,-99.9,30.20,SSW,212,0.0,6.0,-999,-99.99,,,-99.99,,2013-03-07 23:13:00,
2013-03-07 17:22:00,56.0,-99.9,30.20,WSW,247,0.0,5.0,-999,-99.99,,,-99.99,,2013-03-07 23:22:00,
2013-03-07 17:35:00,55.0,-99.9,30.20,South,188,0.0,6.0,-999,-99.99,,,-99.99,,2013-03-07 23:35:00,
2013-03-07 17:44:00,55.0,-99.9,30.20,South,188,0.0,6.0,-999,-99.99,,,-99.99,,2013-03-07 23:44:00,
2013-03-07 17:54:00,54.0,-99.9,30.20,West,275,3.0,4.0,-999,-99.99,,,-99.99,,2013-03-07 23:54:00,
2013-03-07 18:05:00,53.0,-99.9,30.21,NW,306,2.0,5.0,-999,-99.99,,,-99.99,,2013-03-08 00:05:00,
2013-03-07 18:13:00,53.0,-99.9,30.21,NW,306,2.0,5.0,-999,-99.99,,,-99.99,,2013-03-08 00:13:00,
2013-03-07 18:23:00,52.0,-99.9,30.21,SSW,213,1.0,2.0,-999,-99.99,,,-99.99,,2013-03-08 00:23:00,
2013-03-07 18:35:00,51.0,-99.9,30.22,SW,229,0.0,0.0,-999,-99.99,,,-99.99,,2013-03-08 00:35:00,
2013-03-07 18:44:00,51.0,-99.9,30.22,SW,229,0.0,0.0,-999,-99.99,,,-99.99,,2013-03-08 00:44:00,
2013-03-07 18:54:00,50.0,-99.9,30.20,WSW,253,2.0,5.0,-999,-99.99,,,-99.99,,2013-03-08 00:54:00,
2013-03-07 19:02:00,50.0,-99.9,30.22,West,271,0.0,6.0,-999,-99.99,,,-99.99,,2013-03-08 01:02:00,
2013-03-07 19:12:00,50.0,-99.9,30.22,West,271,0.0,6.0,-999,-99.99,,,-99.99,,2013-03-08 01:12:00,
2013-03-07 19:22:00,49.0,-99.9,30.22,West,260,0.0,7.0,-999,-99.99,,,-99.99,,2013-03-08 01:22:00,
2013-03-07 19:33:00,49.0,-99.9,30.22,West,265,1.0,4.0,-999,-99.99,,,-99.99,,2013-03-08 01:33:00,
2013-03-07 19:42:00,49.0,-99.9,30.22,West,265,1.0,4.0,-999,-99.99,,,-99.99,,2013-03-08 01:42:00,
2013-03-07 19:52:00,48.0,-99.9,30.22,WNW,298,1.0,4.0,-999,-99.99,,,-99.99,,2013-03-08 01:52:00,
2013-03-07 20:02:00,48.0,-99.9,30.21,WNW,293,2.0,2.0,-999,-99.99,,,-99.99,,2013-03-08 02:02:00,
2013-03-07 20:12:00,47.0,-99.9,30.22,NW,306,0.0,3.0,-999,-99.99,,,-99.99,,2013-03-08 02:12:00,
2013-03-07 20:22:00,47.0,-99.9,30.22,NW,306,0.0,3.0,-999,-99.99,,,-99.99,,2013-03-08 02:22:00,
2013-03-07 20:32:00,46.0,-99.9,30.22,WNW,284,3.0,3.0,-999,-99.99,,,-99.99,,2013-03-08 02:32:00,
2013-03-07 20:42:00,46.0,-99.9,30.22,WNW,284,3.0,3.0,-999,-99.99,,,-99.99,,2013-03-08 02:42:00,
2013-03-07 20:53:00,46.0,-99.9,30.23,NW,312,1.0,3.0,-999,-99.99,,,-99.99,,2013-03-08 02:53:00,
2013-03-07 21:02:00,46.0,-99.9,30.23,West,271,2.0,6.0,-999,-99.99,,,-99.99,,2013-03-08 03:02:00,
2013-03-07 21:12:00,46.0,-99.9,30.23,West,271,2.0,6.0,-999,-99.99,,,-99.99,,2013-03-08 03:12:00,
2013-03-07 21:22:00,46.0,-99.9,30.23,West,274,2.0,5.0,-999,-99.99,,,-99.99,,2013-03-08 03:22:00,
2013-03-07 21:33:00,45.0,-99.9,30.23,NW,313,2.0,5.0,-999,-99.99,,,-99.99,,2013-03-08 03:33:00,
2013-03-07 21:43:00,45.0,-99.9,30.23,NW,313,2.0,5.0,-999,-99.99,,,-99.99,,2013-03-08 03:43:00,
2013-03-07 21:53:00,45.0,-99.9,30.23,WNW,284,1.0,5.0,-999,-99.99,,,-99.99,,2013-03-08 03:53:00,
2013-03-07 22:02:00,45.0,-99.9,30.23,WNW,303,4.0,7.0,-999,-99.99,,,-99.99,,2013-03-08 04:02:00,
2013-03-07 22:12:00,45.0,-99.9,30.23,WNW,300,5.0,6.0,-999,-99.99,,,-99.99,,2013-03-08 04:12:00,
2013-03-07 22:22:00,45.0,-99.9,30.23,WNW,300,5.0,6.0,-999,-99.99,,,-99.99,,2013-03-08 04:22:00,
2013-03-07 22:32:00,44.0,-99.9,30.23,NNW,336,1.0,5.0,-999,-99.99,,,-99.99,,2013-03-08 04:32:00,
2013-03-07 22:42:00,44.0,-99.9,30.23,NNW,336,1.0,5.0,-999,-99.99,,,-99.99,,2013-03-08 04:42:00,
2013-03-07 22:52:00,44.0,-99.9,30.23,NW,313,3.0,3.0,-999,-99.99,,,-99.99,,2013-03-08 04:52:00,
2013-03-07 23:02:00,44.0,-99.9,30.23,NNW,327,2.0,5.0,-999,-99.99,,,-99.99,,2013-03-08 05:02:00,
2013-03-07 23:12:00,44.0,-99.9,30.23,NNW,327,2.0,5.0,-999,-99.99,,,-99.99,,2013-03-08 05:12:00,
2013-03-07 23:22:00,43.0,-99.9,30.23,NW,310,0.0,5.0,-999,-99.99,,,-99.99,,2013-03-08 05:22:00,
2013-03-07 23:33:00,43.0,-99.9,30.22,WNW,296,1.0,4.0,-999,-99.99,,,-99.99,,2013-03-08 05:33:00,
2013-03-07 23:42:00,43.0,-99.9,30.22,WNW,296,1.0,4.0,-999,-99.99,,,-99.99,,2013-03-08 05:42:00,
2013-03-07 23:52:00,42.0,-99.9,30.22,NW,324,1.0,1.0,-999,-99.99,,,-99.99,,2013-03-08 05:52:00,